User: anonymous   Login
Location: Unspecified
(0.0000°N, 0.0000°E)
Time: 10:33:52
(UTC+00:00)
Language:

BIROS - Orbit

View from above orbital plane
View from above orbital plane
View from above satellite
View from above satellite

Ground track
Ground track

The orbit data is extracted from the following two-line orbital elements,

1 41604U 16040F   20051.89529047 +.00000482 +00000-0 +24152-4 0  9990
2 41604 097.3317 112.4738 0010998 233.3344 126.6882 15.21920768203494
Epoch (UTC): 20 February 2020 21:29:13
Eccentricity: 0.0010998
inclination: 97.3317°
perigee height: 492 km
apogee height: 507 km
right ascension of ascending node: 112.4738°
argument of perigee: 233.3344°
revolutions per day: 15.21920768
mean anomaly at epoch: 126.6882°
orbit number at epoch: 20349

The dashed part of the orbit path shows where the satellite is in the earth's shadow,  

DLR